Temperature
1 1 1 1 2 2 2 2 2 2 2 2 2 2 2 2 2 1 1 1 1 1 1 1 1 1 1 1 1 1 1 1 1 1 1 1 1 1 1 1 1 1 1
0 0 1 1 1 1 1 1 1 1 1 1 1 1 1 1 1 1 1 1 1 1 1 1 1 1 1 0 0 0 0 0 0 0 0 1 0 0 0 0 0 -0 0
-0 -0 0 0 0 0 0 0 0 0 0 0 0 0 0 0 0 0 0 0 0 0 0 -0 0 0 0 -0 -0 -0 -0 -0 -0 -0 -0 -0 -0 -0 -0 -1 -1 -1 -1
-1 -1 -0 0 0 -0 -0 -0 -0 -0 -0 -0 -0 -0 -0 -0 -0 -0 -0 -1 -0 -0 -0 -0 -0 -0 -0 -0 -1 -1 -1 -1 -1 -1 -1 -1 -1 -1 -1 -1 -1 -1 -1
-1 -1 -1 -1 -1 -1 -1 -1 -1 -1 -1 -1 -1 -1 -1 -1 -1 -1 -1 -1 -1 -1 -1 -1 -1 -1 -1 -1 -1 -1 -1 -1 -2 -2 -2 -2 -2 -2 -2 -2 -2 -2 -2
-2 -2 -2 -1 -1 -1 -1 -2 -1 -2 -2 -2 -2 -2 -2 -2 -2 -2 -2 -2 -2 -1 -1 -1 -1 -1 -1 -1 -2 -2 -2 -2 -2 -2 -2 -2 -2 -2 -2 -2 -2 -2 -3
-3 -2 -2 -2 -2 -2 -2 -2 -2 -2 -2 -2 -2 -2 -2 -2 -2 -2 -2 -2 -2 -2 -2 -2 -2 -2 -2 -2 -2 -2 -2 -3 -3 -3 -3 -3 -2 -2 -2 -3 -3 -3 -2
-3 -3 -3 -3 -3 -3 -3 -3 -3 -3 -3 -3 -3 -3 -3 -3 -3 -3 -3 -3 -3 -3 -3 -2 -2 -2 -2 -3 -3 -3 -3 -3 -3 -3 -3 -3 -3 -3 -3 -3 -3 -3 -3
-4 -4 -4 -4 -4 -3 -3 -3 -3 -3 -3 -3 -3 -3 -3 -3 -3 -3 -3 -4 -4 -3 -3 -3 -3 -3 -3 -3 -3 -4 -4 -4 -3 -4 -4 -4 -4 -4 -4 -4 -4 -4 -4
-4 -4 -4 -4 -4 -4 -4 -4 -4 -4 -4 -4 -4 -4 -4 -4 -4 -4 -4 -4 -4 -4 -4 -4 -4 -3 -4 -4 -4 -4 -4 -4 -4 -4 -4 -4 -4 -4 -4 -4 -4 -4 -5
-5 -5 -5 -5 -5 -5 -5 -5 -5 -5 -5 -5 -5 -5 -5 -4 -4 -4 -4 -5 -5 -5 -4 -4 -4 -4 -4 -4 -4 -4 -4 -5 -5 -5 -5 -5 -5 -5 -5 -5 -5 -5 -5
-5 -5 -5 -5 -5 -5 -5 -5 -6 -6 -6 -6 -6 -5 -5 -5 -5 -5 -5 -5 -5 -5 -5 -5 -5 -5 -5 -5 -5 -5 -5 -5 -5 -5 -5 -5 -5 -5 -5 -5 -5 -5 -5
-6 -6 -6 -6 -6 -6 -6 -6 -6 -6 -6 -6 -6 -6 -6 -6 -6 -6 -6 -6 -6 -6 -5 -5 -5 -5 -5 -5 -5 -6 -6 -6 -6 -6 -6 -6 -6 -6 -6 -6 -6 -6 -6
-7 -7 -7 -7 -6 -6 -7 -7 -7 -7 -7 -7 -7 -7 -7 -7 -7 -6 -6 -6 -6 -6 -6 -6 -6 -6 -6 -6 -6 -6 -6 -6 -6 -6 -6 -7 -7 -7 -7 -7 -6 -7 -7
-7 -7 -7 -7 -7 -7 -7 -7 -7 -7 -7 -7 -7 -7 -8 -7 -7 -7 -7 -7 -7 -7 -7 -7 -7 -7 -7 -7 -7 -7 -7 -7 -7 -7 -7 -7 -7 -7 -7 -7 -7 -7 -7
-8 -8 -8 -8 -8 -8 -8 -8 -8 -8 -8 -8 -8 -8 -8 -8 -8 -8 -8 -8 -7 -7 -7 -7 -7 -7 -7 -7 -7 -7 -7 -7 -7 -8 -8 -8 -8 -8 -8 -8 -8 -8 -8
-9 -9 -9 -9 -9 -9 -9 -9 -9 -8 -8 -8 -8 -8 -8 -8 -8 -8 -8 -8 -8 -8 -8 -8 -8 -8 -8 -8 -8 -8 -8 -8 -8 -8 -8 -8 -8 -8 -9 -9 -9 -9 -9
-9 -10 -10 -10 -10 -10 -10 -10 -10 -9 -9 -9 -9 -9 -9 -9 -9 -9 -9 -9 -9 -9 -9 -9 -8 -8 -8 -8 -8 -9 -8 -9 -9 -9 -9 -9 -9 -9 -9 -9 -9 -9 -9
-10 -10 -10 -10 -10 -10 -10 -10 -10 -10 -10 -10 -10 -10 -10 -10 -9 -9 -9 -9 -9 -9 -9 -9 -9 -9 -9 -9 -9 -9 -9 -9 -9 -9 -9 -9 -10 -10 -10 -10 -10 -10 -10
-11 -11 -11 -11 -11 -11 -11 -11 -11 -10 -10 -10 -10 -10 -10 -10 -10 -10 -10 -10 -10 -10 -10 -10 -10 -10 -10 -10 -10 -10 -10 -10 -10 -10 -10 -10 -10 -10 -10 -10 -10 -10 -10
-11 -11 -11 -11 -11 -11 -11 -11 -11 -11 -11 -11 -11 -11 -11 -11 -11 -11 -11 -11 -11 -11 -11 -11 -10 -10 -10 -10 -10 -10 -10 -10 -10 -10 -10 -11 -11 -11 -11 -11 -11 -11 -11
-12 -12 -12 -12 -12 -12 -12 -12 -12 -12 -12 -12 -12 -12 -12 -12 -11 -11 -11 -11 -11 -11 -11 -11 -11 -11 -11 -11 -11 -11 -11 -11 -11 -11 -11 -11 -11 -11 -11 -11 -11 -11 -11
-12 -12 -13 -13 -13 -12 -12 -12 -13 -13 -12 -12 -12 -12 -12 -12 -12 -12 -12 -12 -12 -12 -12 -12 -11 -11 -11 -11 -11 -11 -11 -11 -11 -11 -12 -12 -12 -12 -12 -12 -12 -12 -12
-13 -13 -13 -13 -13 -13 -13 -13 -13 -13 -13 -13 -13 -13 -13 -12 -12 -12 -12 -12 -12 -12 -12 -12 -12 -12 -12 -12 -12 -12 -12 -12 -12 -12 -12 -12 -12 -12 -12 -12 -12 -12 -12
-14 -14 -14 -14 -14 -14 -14 -13 -13 -13 -13 -13 -13 -13 -13 -13 -13 -13 -13 -13 -13 -13 -12 -12 -12 -12 -12 -12 -12 -12 -12 -12 -12 -12 -12 -13 -13 -13 -12 -12 -12 -12 -12
-14 -14 -14 -14 -14 -14 -14 -14 -14 -14 -14 -14 -14 -14 -13 -13 -13 -13 -13 -13 -13 -13 -13 -13 -13 -12 -12 -12 -12 -12 -12 -12 -12 -12 -13 -13 -13 -13 -13 -13 -13 -13 -13
Wind_Speed
3 3 3 3 3 3 3 3 4 5 5 5 6 6 7 7 7 8 8 8 9 9 8 9 9 8 6 6 6 6 6 6 7 4 4 4 6 6 6 7 7 8 8
3 3 3 3 3 3 3 3 3 3 4 5 6 6 7 7 7 9 9 9 10 10 10 9 9 8 8 7 6 7 7 7 6 6 4 4 5 6 6 6 6 7 7
3 3 3 3 3 3 3 3 3 3 4 5 5 6 6 6 7 8 8 9 10 10 10 10 10 9 9 8 8 7 6 6 5 5 4 4 4 4 5 5 5 6 7
3 3 3 3 3 4 3 3 3 3 4 4 5 5 6 6 6 7 7 8 8 9 9 10 10 10 11 10 8 8 7 6 6 5 4 4 4 4 4 5 5 5 5
3 4 4 3 3 3 3 3 3 4 4 4 5 5 5 5 5 6 7 7 8 8 8 9 10 11 12 10 8 8 8 7 6 6 5 5 4 4 5 5 5 5 5
4 4 3 3 3 3 3 3 3 4 4 4 5 5 5 5 7 8 7 7 8 8 8 8 8 10 11 13 13 12 11 9 8 7 7 7 7 6 5 5 5 5 5
4 4 3 3 3 3 3 3 4 4 4 4 5 5 6 6 7 8 8 7 8 8 8 8 7 7 9 9 10 11 11 12 11 9 9 9 8 7 7 7 7 7 6
4 3 3 3 3 3 3 3 4 4 4 4 4 5 5 6 7 8 8 7 7 8 8 9 8 8 8 8 7 8 9 9 10 10 9 9 8 7 8 7 7 6 4
4 4 4 4 4 3 4 4 3 4 4 4 4 5 5 5 6 6 7 5 6 7 7 8 8 8 9 9 8 8 8 8 8 10 10 9 9 9 8 5 5 5 5
5 4 4 4 4 4 4 4 4 4 4 4 4 4 5 5 5 6 6 5 5 6 6 7 9 9 10 10 9 8 9 8 6 6 7 7 7 8 10 8 7 7 5
3 3 3 4 4 4 4 3 4 3 4 4 4 4 4 5 5 6 6 4 5 5 5 6 6 10 10 11 10 8 9 7 6 6 5 5 5 5 6 7 7 6 6
3 3 3 3 3 3 3 3 3 3 4 4 4 4 4 4 5 6 7 6 6 5 5 5 6 8 10 10 9 9 9 7 5 5 5 5 5 5 4 5 6 6 6
2 3 3 3 3 3 3 3 3 3 3 3 3 4 3 3 4 6 6 6 6 5 5 7 8 8 8 7 8 8 7 5 5 5 5 5 4 4 3 3 3 3 3
2 2 2 3 3 2 3 3 3 3 4 4 4 4 3 3 3 3 4 4 5 4 4 5 6 6 6 6 6 6 5 5 5 5 4 3 3 3 3 3 3 3 3
1 1 2 2 2 2 2 3 4 4 5 5 4 4 4 5 5 5 4 4 4 4 3 3 3 3 4 4 4 4 4 4 5 4 4 4 4 4 4 3 3 3 4
1 1 1 1 1 2 2 2 2 4 5 6 6 6 5 6 6 7 7 6 6 5 4 4 4 4 5 4 4 4 4 4 4 4 4 4 4 4 4 3 3 4 4
1 1 1 1 1 1 2 2 2 3 4 5 6 6 6 6 6 6 6 6 5 4 4 4 4 5 5 4 4 4 4 4 4 4 5 5 4 4 4 4 4 4 4
1 2 2 1 1 2 2 2 3 3 3 3 4 5 5 5 6 5 5 3 3 3 4 4 5 5 4 4 4 4 4 4 4 5 5 5 5 5 5 5 5 5 4
2 1 1 1 1 1 2 2 2 2 3 3 3 3 3 3 4 3 2 2 3 3 4 4 4 4 4 4 4 4 4 4 5 5 5 5 5 5 5 5 5 6 6
2 2 2 1 1 1 1 1 2 2 2 2 3 3 2 2 2 2 2 3 3 4 4 4 4 4 4 4 4 4 4 4 5 5 5 5 5 5 6 6 6 6 5
2 2 2 2 1 1 1 2 2 2 2 2 3 3 3 3 3 3 3 3 4 4 4 4 4 4 4 4 4 5 5 5 4 4 5 5 5 5 5 5 6 6 5
1 2 2 2 2 2 2 2 2 2 2 3 3 3 4 3 3 3 3 4 4 4 4 4 4 4 4 4 5 5 5 5 5 5 5 5 5 5 5 5 5 5 5
2 2 2 2 2 2 2 2 2 2 2 3 3 3 3 3 3 4 4 4 4 4 4 4 4 4 4 5 5 6 6 6 6 6 5 5 5 5 5 6 6 6 6
2 2 2 2 2 2 2 3 3 3 3 3 3 3 3 4 4 4 4 4 4 4 4 4 4 5 6 6 6 7 7 8 7 7 7 6 6 5 6 6 6 7 7
2 2 2 2 2 3 3 3 3 3 3 3 3 4 4 4 4 4 4 4 5 4 5 5 5 5 6 7 7 8 9 10 10 8 8 7 7 7 7 7 7 7 7
2 2 2 2 2 3 3 3 3 4 4 4 4 4 4 4 5 5 4 4 4 4 5 5 5 6 7 7 8 9 10 11 11 11 9 7 7 7 7 6 7 7 7
Wind_Direction
232 233 235 234 237 238 234 236 242 221 207 209 209 212 212 216 214 213 215 211 214 217 217 217 218 215 214 213 213 221 228 229 237 244 237 224 222 230 222 224 228 228 231
235 237 241 241 239 239 238 243 247 233 214 212 213 216 218 218 219 218 219 217 217 217 217 217 219 215 218 215 215 219 223 223 228 234 236 229 229 231 228 225 228 230 232
232 236 240 240 243 246 245 245 249 243 228 219 215 216 219 220 224 221 220 219 219 220 217 217 217 216 218 216 217 219 219 218 221 224 230 231 232 225 231 230 229 231 235
230 232 238 241 244 247 245 241 243 243 235 226 228 226 225 222 225 225 222 220 221 222 221 220 219 218 217 216 215 215 213 212 213 214 218 221 223 219 223 226 231 231 232
230 234 240 245 245 242 241 240 242 241 239 230 231 234 229 225 223 224 226 222 221 223 225 224 223 222 219 216 213 209 206 211 213 216 218 219 219 212 222 222 232 239 236
233 240 246 243 238 236 236 237 240 242 241 230 228 231 231 232 234 230 228 224 223 223 226 228 228 223 221 221 219 216 212 212 213 217 223 221 223 225 226 223 226 233 243
232 241 239 230 232 236 236 232 238 242 246 240 233 231 234 241 239 234 234 227 226 225 225 224 223 222 223 221 219 218 219 220 221 224 228 228 227 223 224 226 224 229 242
231 236 233 229 235 234 232 235 243 250 247 245 238 236 240 248 245 239 238 234 234 229 225 222 221 221 219 218 216 217 220 221 223 227 231 234 234 229 226 230 233 238 260
231 235 240 235 234 232 233 238 246 253 254 253 246 239 243 251 244 242 235 236 235 235 230 225 221 222 217 215 215 218 223 228 225 226 232 235 231 227 222 222 225 226 246
235 241 242 237 232 232 235 240 244 245 252 256 254 246 246 251 242 243 241 236 236 235 232 227 223 224 220 215 214 215 222 224 219 222 226 227 225 221 219 221 224 226 240
239 239 236 233 232 232 236 239 235 238 245 250 256 252 252 249 240 241 247 240 238 236 231 231 225 221 223 221 221 221 224 223 220 223 225 223 222 221 220 222 225 227 231
228 229 233 233 231 226 226 231 228 229 235 243 251 257 255 248 244 246 247 247 245 239 236 236 230 222 225 223 222 220 219 217 217 220 224 224 222 222 224 223 226 233 241
222 225 230 233 229 222 219 220 222 225 230 240 248 253 258 254 250 251 248 248 250 250 244 236 232 226 223 222 221 217 217 216 217 220 222 225 226 221 218 224 220 221 237
222 227 222 222 227 224 227 225 225 226 231 237 244 249 257 259 256 251 249 249 252 252 248 233 227 222 220 221 220 217 214 211 213 219 224 222 211 209 214 223 227 219 235
236 234 220 222 226 230 238 242 238 239 238 241 240 241 243 252 255 262 263 254 251 250 247 237 222 214 216 218 217 214 209 207 216 216 216 215 212 215 222 221 219 219 234
244 249 232 217 213 218 232 268 265 258 265 266 263 256 257 260 264 265 265 266 262 242 234 224 221 221 218 216 216 216 215 215 217 217 217 217 216 215 220 222 220 223 229
255 263 253 233 221 226 237 247 262 273 264 264 263 260 260 260 262 265 266 267 257 236 229 227 226 227 225 221 220 219 220 218 214 215 217 218 218 218 218 222 223 225 230
270 269 267 248 242 242 246 253 250 250 259 268 265 258 256 260 265 264 261 264 250 240 232 229 229 229 227 224 222 222 219 214 214 215 218 219 218 218 220 224 223 224 228
272 268 263 262 260 255 255 260 258 253 254 262 271 269 262 261 262 261 259 248 250 253 247 239 232 230 228 226 224 223 222 221 221 219 220 221 221 221 224 226 225 222 228
284 280 282 272 267 262 256 254 257 260 267 265 264 269 277 271 259 261 257 250 250 255 256 251 242 234 227 224 221 219 221 224 223 226 225 224 226 226 226 225 223 222 227
286 281 288 288 277 270 266 262 264 266 270 279 283 282 274 268 265 268 269 263 258 256 258 257 249 235 227 222 220 221 223 226 226 227 227 227 226 228 228 227 223 223 226
283 281 284 285 283 276 273 270 266 264 266 274 287 297 296 281 272 270 269 269 269 266 261 253 246 239 231 222 218 220 223 226 225 223 226 225 226 228 228 226 222 222 221
275 278 283 284 279 277 283 280 272 269 273 280 287 293 289 276 270 269 268 268 267 266 262 255 247 242 239 235 231 224 223 226 224 219 219 225 227 227 228 226 221 221 220
269 268 272 277 279 275 274 278 276 275 277 280 283 285 284 275 269 269 271 272 269 267 264 260 251 242 239 241 238 234 231 230 227 223 221 222 226 230 231 228 224 221 222
267 267 269 273 275 276 277 279 279 279 278 277 279 283 285 282 276 274 272 272 273 271 270 266 257 247 241 242 243 239 234 232 233 229 223 223 224 228 229 229 226 224 225
274 273 276 279 278 277 276 277 278 279 278 280 282 282 283 284 280 278 277 274 275 276 275 269 258 252 251 248 246 246 242 236 234 235 230 222 224 229 226 227 226 225 226
Height
1473 1474 1475 1476 1477 1478 1479 1480 1481 1482 1484 1485 1488 1489 1491 1493 1495 1497 1498 1500 1502 1504 1506 1508 1509 1511 1513 1514 1516 1518 1519 1521 1520 1521 1522 1523 1524 1524 1525 1526 1527 1528 1528
1469 1469 1471 1472 1473 1473 1474 1475 1476 1477 1479 1480 1482 1484 1486 1487 1489 1491 1492 1494 1496 1498 1500 1502 1504 1505 1507 1508 1510 1512 1514 1515 1516 1515 1516 1517 1518 1519 1520 1520 1521 1522 1523
1465 1465 1466 1467 1468 1469 1470 1471 1472 1473 1474 1476 1477 1479 1480 1481 1483 1485 1486 1488 1490 1492 1494 1496 1498 1499 1500 1502 1504 1506 1507 1509 1510 1510 1510 1512 1513 1514 1515 1515 1516 1517 1518
1460 1461 1462 1463 1463 1464 1465 1466 1467 1469 1470 1471 1472 1473 1475 1476 1477 1479 1480 1482 1484 1486 1488 1489 1491 1493 1494 1496 1498 1500 1502 1503 1504 1505 1505 1506 1508 1509 1509 1510 1510 1512 1512
1456 1457 1457 1458 1459 1460 1461 1462 1463 1464 1465 1466 1468 1469 1470 1471 1472 1473 1474 1476 1478 1480 1481 1483 1485 1486 1488 1491 1493 1494 1496 1497 1498 1499 1500 1501 1502 1503 1504 1504 1505 1506 1506
1453 1453 1453 1454 1455 1456 1457 1458 1459 1460 1460 1462 1462 1463 1464 1465 1467 1468 1469 1470 1472 1473 1475 1477 1478 1480 1482 1485 1487 1488 1490 1491 1492 1493 1494 1495 1496 1497 1499 1499 1499 1500 1500
1449 1449 1450 1450 1451 1452 1453 1454 1454 1455 1456 1457 1458 1459 1459 1461 1462 1463 1464 1465 1466 1467 1469 1471 1472 1474 1476 1478 1480 1482 1483 1485 1487 1489 1489 1489 1490 1492 1493 1493 1494 1494 1495
1445 1445 1446 1446 1447 1447 1448 1449 1450 1451 1452 1452 1453 1454 1455 1456 1457 1458 1459 1460 1461 1462 1463 1465 1466 1468 1470 1472 1474 1475 1477 1479 1480 1482 1483 1484 1485 1486 1487 1488 1488 1489 1489
1441 1441 1442 1442 1443 1443 1444 1445 1446 1447 1447 1448 1449 1449 1450 1451 1452 1453 1454 1455 1456 1456 1458 1459 1461 1462 1464 1467 1468 1469 1471 1472 1474 1476 1477 1478 1479 1480 1481 1483 1483 1483 1483
1437 1437 1438 1438 1439 1439 1440 1441 1442 1443 1443 1444 1444 1445 1446 1446 1447 1448 1449 1450 1450 1451 1453 1454 1455 1457 1459 1460 1462 1463 1465 1466 1468 1469 1470 1471 1473 1474 1475 1476 1477 1477 1477
1433 1433 1434 1434 1435 1435 1436 1437 1438 1438 1439 1439 1440 1440 1441 1441 1442 1443 1444 1445 1446 1446 1447 1448 1450 1451 1453 1455 1456 1458 1459 1461 1462 1463 1464 1465 1466 1468 1469 1470 1471 1472 1472
1429 1430 1430 1430 1431 1431 1432 1432 1433 1434 1434 1435 1435 1435 1436 1437 1437 1438 1439 1440 1441 1442 1442 1443 1445 1446 1448 1449 1451 1452 1454 1455 1456 1457 1458 1459 1460 1462 1463 1464 1465 1466 1466
1425 1426 1426 1426 1427 1428 1428 1428 1429 1430 1430 1430 1430 1431 1431 1432 1433 1434 1435 1435 1436 1437 1437 1439 1440 1441 1443 1444 1445 1447 1448 1449 1450 1451 1452 1453 1455 1456 1457 1458 1459 1459 1460
1421 1422 1422 1422 1423 1423 1424 1424 1425 1425 1426 1426 1426 1427 1427 1427 1428 1429 1429 1430 1431 1432 1433 1434 1435 1436 1437 1438 1440 1441 1442 1444 1445 1446 1447 1448 1449 1450 1451 1452 1453 1453 1454
1418 1418 1418 1418 1419 1419 1420 1420 1421 1421 1422 1423 1423 1423 1423 1423 1424 1425 1425 1425 1426 1427 1428 1429 1430 1430 1431 1433 1434 1435 1437 1438 1440 1441 1442 1443 1443 1445 1446 1447 1447 1448 1448
1415 1415 1415 1415 1415 1415 1416 1416 1416 1417 1418 1419 1419 1420 1419 1419 1420 1420 1420 1421 1422 1423 1423 1424 1424 1425 1426 1427 1429 1430 1431 1433 1434 1435 1436 1437 1438 1439 1440 1441 1442 1442 1443
1413 1412 1412 1412 1412 1412 1412 1413 1413 1413 1414 1415 1415 1415 1415 1415 1415 1415 1416 1416 1417 1418 1418 1418 1419 1420 1422 1423 1424 1425 1426 1427 1429 1430 1431 1431 1432 1433 1434 1435 1436 1437 1437
1410 1410 1410 1409 1410 1409 1409 1409 1409 1409 1409 1409 1410 1411 1411 1411 1411 1411 1412 1412 1412 1412 1413 1413 1414 1416 1417 1418 1419 1420 1421 1422 1423 1424 1425 1426 1427 1427 1428 1429 1430 1431 1432
1408 1408 1408 1407 1407 1406 1406 1406 1406 1406 1406 1406 1406 1406 1407 1407 1407 1407 1407 1407 1406 1407 1408 1408 1409 1410 1411 1413 1414 1415 1416 1417 1418 1419 1419 1420 1421 1422 1423 1424 1425 1425 1426
1406 1405 1405 1404 1404 1404 1403 1403 1403 1403 1402 1402 1402 1402 1402 1402 1402 1402 1403 1403 1403 1403 1403 1404 1404 1405 1406 1407 1408 1409 1410 1411 1412 1413 1414 1415 1416 1417 1417 1418 1419 1420 1421
1404 1403 1403 1402 1402 1401 1401 1400 1400 1399 1399 1399 1399 1399 1399 1399 1398 1398 1398 1398 1398 1398 1398 1399 1399 1400 1401 1401 1402 1403 1404 1405 1406 1407 1408 1409 1410 1411 1412 1413 1414 1415 1415
1402 1401 1401 1400 1399 1399 1398 1398 1397 1396 1396 1395 1395 1395 1395 1395 1394 1394 1394 1394 1394 1394 1394 1394 1394 1395 1395 1396 1396 1397 1398 1399 1400 1401 1402 1403 1405 1406 1406 1407 1408 1409 1410
1400 1399 1399 1398 1397 1396 1396 1395 1394 1394 1393 1392 1392 1391 1391 1391 1390 1390 1390 1389 1389 1389 1389 1389 1389 1389 1390 1390 1391 1391 1392 1393 1394 1395 1396 1397 1399 1400 1401 1402 1403 1404 1404
1398 1397 1396 1395 1395 1394 1393 1392 1392 1391 1390 1390 1389 1388 1388 1387 1386 1386 1386 1385 1385 1385 1384 1384 1384 1384 1384 1385 1385 1386 1387 1388 1389 1390 1391 1392 1393 1394 1396 1397 1397 1398 1399
1396 1395 1394 1393 1392 1391 1390 1390 1389 1388 1388 1387 1386 1386 1385 1384 1383 1382 1382 1381 1380 1380 1379 1379 1379 1379 1379 1379 1380 1380 1381 1382 1383 1384 1386 1387 1388 1389 1390 1391 1392 1393 1394
1394 1393 1392 1391 1390 1389 1388 1387 1386 1386 1385 1384 1383 1382 1381 1380 1379 1379 1378 1377 1376 1375 1375 1374 1374 1374 1374 1374 1374 1375 1376 1377 1378 1379 1380 1381 1382 1383 1384 1385 1386 1387 1388